Year,Month,Day,Hour,Minute,Value (Times are PST for windgust in km/hr)
2014,06,20,00,00,4.80
2014,06,20,00,01,4.80
2014,06,20,00,02,16.10
2014,06,20,00,03,9.60
2014,06,20,00,04,9.60
2014,06,20,00,05,9.60
2014,06,20,00,06,9.60
2014,06,20,00,07,14.50
2014,06,20,00,08,14.50
2014,06,20,00,09,11.30
2014,06,20,00,10,8.10
2014,06,20,00,11,4.80
2014,06,20,00,12,4.80
2014,06,20,00,13,6.40
2014,06,20,00,14,6.40
2014,06,20,00,15,11.30
2014,06,20,00,16,9.60
2014,06,20,00,17,4.80
2014,06,20,00,18,8.10
2014,06,20,00,19,9.60
2014,06,20,00,20,9.60
2014,06,20,00,21,11.30
2014,06,20,00,22,9.60
2014,06,20,00,23,8.10
2014,06,20,00,24,6.40
2014,06,20,00,26,3.20
2014,06,20,00,28,9.60
2014,06,20,00,29,12.90
2014,06,20,00,30,11.30
2014,06,20,00,31,11.30
2014,06,20,00,32,8.10
2014,06,20,00,33,9.60
2014,06,20,00,34,8.10
2014,06,20,00,35,8.10
2014,06,20,00,36,6.40
2014,06,20,00,37,19.30
2014,06,20,00,38,29.00
2014,06,20,00,39,25.70
2014,06,20,00,40,16.10
2014,06,20,00,41,17.70
2014,06,20,00,42,17.70
2014,06,20,00,43,17.70
2014,06,20,00,44,14.50
2014,06,20,00,45,16.10
2014,06,20,00,46,8.10
2014,06,20,00,47,11.30
2014,06,20,00,48,20.90
2014,06,20,00,49,19.30
2014,06,20,00,50,25.70
2014,06,20,00,51,9.60
2014,06,20,00,52,9.60
2014,06,20,00,53,17.70
2014,06,20,00,54,20.90
2014,06,20,00,55,25.70
2014,06,20,00,56,14.50
2014,06,20,00,57,17.70
2014,06,20,00,58,17.70
2014,06,20,00,59,9.60
2014,06,20,01,00,9.60
2014,06,20,01,01,6.40
2014,06,20,01,02,1.60
2014,06,20,01,03,4.80
2014,06,20,01,04,4.80
2014,06,20,01,05,12.90
2014,06,20,01,06,4.80
2014,06,20,01,07,6.40
2014,06,20,01,08,3.20
2014,06,20,01,09,9.60
2014,06,20,01,10,8.10
2014,06,20,01,11,8.10
2014,06,20,01,12,6.40
2014,06,20,01,13,6.40
2014,06,20,01,14,9.60
2014,06,20,01,15,16.10
2014,06,20,01,16,16.10
2014,06,20,01,17,20.90
2014,06,20,01,18,17.70
2014,06,20,01,19,11.30
2014,06,20,01,20,14.50
2014,06,20,01,21,17.70
2014,06,20,01,22,11.30
2014,06,20,01,23,8.10
2014,06,20,01,24,9.60
2014,06,20,01,25,11.30
2014,06,20,01,26,9.60
2014,06,20,01,27,8.10
2014,06,20,01,28,8.10
2014,06,20,01,29,11.30
2014,06,20,01,30,6.40
2014,06,20,01,31,8.10
2014,06,20,01,32,4.80
2014,06,20,01,33,1.60
2014,06,20,01,34,3.20
2014,06,20,01,35,1.60
2014,06,20,01,37,4.80
2014,06,20,01,38,4.80
2014,06,20,01,39,3.20
2014,06,20,01,40,4.80
2014,06,20,01,41,4.80
2014,06,20,01,42,9.60
2014,06,20,01,43,6.40
2014,06,20,01,44,8.10
2014,06,20,01,45,9.60
2014,06,20,01,46,8.10
2014,06,20,01,47,6.40
2014,06,20,01,48,4.80
2014,06,20,01,49,9.60
2014,06,20,01,50,8.10
2014,06,20,01,51,6.40
2014,06,20,01,52,8.10
2014,06,20,01,55,3.20
2014,06,20,01,56,1.60
2014,06,20,01,57,4.80
2014,06,20,01,58,6.40
2014,06,20,01,59,6.40
2014,06,20,02,00,3.20
2014,06,20,02,01,8.10
2014,06,20,02,02,6.40
2014,06,20,02,03,6.40
2014,06,20,02,04,4.80
2014,06,20,02,05,6.40
2014,06,20,02,06,4.80
2014,06,20,02,07,1.60
2014,06,20,02,08,3.20
2014,06,20,02,09,6.40
2014,06,20,02,10,8.10
2014,06,20,02,11,9.60
2014,06,20,02,12,9.60
2014,06,20,02,13,6.40
2014,06,20,02,14,8.10
2014,06,20,02,15,6.40
2014,06,20,02,16,9.60
2014,06,20,02,17,8.10
2014,06,20,02,18,8.10
2014,06,20,02,19,8.10
2014,06,20,02,20,8.10
2014,06,20,02,21,8.10
2014,06,20,02,22,3.20
2014,06,20,02,23,4.80
2014,06,20,02,24,4.80
2014,06,20,02,25,6.40
2014,06,20,02,26,6.40
2014,06,20,02,27,1.60
2014,06,20,02,28,4.80
2014,06,20,02,30,4.80
2014,06,20,02,31,8.10
2014,06,20,02,32,8.10
2014,06,20,02,33,4.80
2014,06,20,02,34,3.20
2014,06,20,02,35,3.20
2014,06,20,02,36,3.20
2014,06,20,02,37,8.10
2014,06,20,02,38,6.40
2014,06,20,02,39,6.40
2014,06,20,02,40,6.40
2014,06,20,02,41,6.40
2014,06,20,02,42,4.80
2014,06,20,02,43,8.10
2014,06,20,02,44,3.20
2014,06,20,02,45,6.40
2014,06,20,02,46,14.50
2014,06,20,02,47,12.90
2014,06,20,02,48,11.30
2014,06,20,02,49,11.30
2014,06,20,02,50,8.10
2014,06,20,02,51,14.50
2014,06,20,02,52,17.70
2014,06,20,02,53,17.70
2014,06,20,02,54,9.60
2014,06,20,02,55,6.40
2014,06,20,02,56,3.20
2014,06,20,02,57,9.60
2014,06,20,02,58,11.30
2014,06,20,02,59,17.70
2014,06,20,03,00,16.10
2014,06,20,03,01,9.60
2014,06,20,03,02,6.40
2014,06,20,03,03,4.80
2014,06,20,03,04,9.60
2014,06,20,03,05,19.30
2014,06,20,03,06,17.70
2014,06,20,03,07,14.50
2014,06,20,03,08,9.60
2014,06,20,03,09,11.30
2014,06,20,03,10,11.30
2014,06,20,03,11,20.90
2014,06,20,03,12,27.40
2014,06,20,03,13,20.90
2014,06,20,03,14,11.30
2014,06,20,03,15,8.10
2014,06,20,03,16,3.20
2014,06,20,03,17,9.60
2014,06,20,03,18,14.50
2014,06,20,03,19,6.40
2014,06,20,03,20,8.10
2014,06,20,03,21,11.30
2014,06,20,03,22,17.70
2014,06,20,03,23,17.70
2014,06,20,03,24,14.50
2014,06,20,03,25,8.10
2014,06,20,03,26,8.10
2014,06,20,03,27,1.60
2014,06,20,03,28,8.10
2014,06,20,03,29,8.10
2014,06,20,03,30,6.40
2014,06,20,03,31,1.60
2014,06,20,03,32,3.20
2014,06,20,03,33,1.60
2014,06,20,03,39,3.20
2014,06,20,03,40,4.80
2014,06,20,03,41,3.20
2014,06,20,03,44,3.20
2014,06,20,03,45,1.60
2014,06,20,03,46,4.80
2014,06,20,03,47,4.80
2014,06,20,03,48,3.20
2014,06,20,03,49,3.20
2014,06,20,03,50,3.20
2014,06,20,03,51,1.60
2014,06,20,03,52,3.20
2014,06,20,03,53,4.80
2014,06,20,03,54,4.80
2014,06,20,03,55,6.40
2014,06,20,03,56,4.80
2014,06,20,03,57,4.80
2014,06,20,03,58,4.80
2014,06,20,03,59,1.60
2014,06,20,04,03,3.20
2014,06,20,04,04,4.80
2014,06,20,04,05,3.20
2014,06,20,04,06,3.20
2014,06,20,04,09,1.60
2014,06,20,04,10,1.60
2014,06,20,04,11,3.20
2014,06,20,04,12,3.20
2014,06,20,04,15,4.80
2014,06,20,04,16,8.10
2014,06,20,04,17,8.10
2014,06,20,04,18,8.10
2014,06,20,04,19,9.60
2014,06,20,04,20,8.10
2014,06,20,04,21,8.10
2014,06,20,04,22,1.60
2014,06,20,04,23,1.60
2014,06,20,04,29,4.80
2014,06,20,04,30,1.60
2014,06,20,04,31,3.20
2014,06,20,04,32,3.20
2014,06,20,04,33,4.80
2014,06,20,04,34,4.80
2014,06,20,04,35,4.80
2014,06,20,04,36,3.20
2014,06,20,04,37,3.20
2014,06,20,04,38,3.20
2014,06,20,04,39,3.20
2014,06,20,04,41,8.10
2014,06,20,04,42,8.10
2014,06,20,04,43,6.40
2014,06,20,04,44,6.40
2014,06,20,04,45,6.40
2014,06,20,04,46,4.80
2014,06,20,04,50,4.80
2014,06,20,04,51,4.80
2014,06,20,04,52,4.80
2014,06,20,04,53,3.20
2014,06,20,04,54,1.60
2014,06,20,04,58,4.80
2014,06,20,04,59,4.80
2014,06,20,05,00,6.40
2014,06,20,05,01,4.80
2014,06,20,05,05,1.60
2014,06,20,05,06,3.20
2014,06,20,05,16,1.60
2014,06,20,05,17,3.20
2014,06,20,05,18,1.60
2014,06,20,05,19,1.60
2014,06,20,05,20,1.60
2014,06,20,05,28,3.20
2014,06,20,05,29,3.20
2014,06,20,05,30,1.60
2014,06,20,05,31,1.60
2014,06,20,05,35,1.60
2014,06,20,05,36,3.20
2014,06,20,05,37,3.20
2014,06,20,05,38,3.20
2014,06,20,05,39,1.60
2014,06,20,05,43,1.60
2014,06,20,05,44,1.60
2014,06,20,05,51,4.80
2014,06,20,05,52,4.80
2014,06,20,05,53,4.80
2014,06,20,05,54,3.20
2014,06,20,05,55,3.20
2014,06,20,05,56,1.60
2014,06,20,06,24,3.20
2014,06,20,06,25,3.20
2014,06,20,06,26,3.20
2014,06,20,06,27,1.60
2014,06,20,06,28,1.60
2014,06,20,06,29,1.60
2014,06,20,07,14,3.20
2014,06,20,07,15,3.20
2014,06,20,07,16,1.60
2014,06,20,07,17,3.20
2014,06,20,07,18,1.60
2014,06,20,07,19,1.60
2014,06,20,07,20,1.60
2014,06,20,07,21,1.60
2014,06,20,07,30,1.60
2014,06,20,07,31,3.20
2014,06,20,07,32,3.20
2014,06,20,07,34,3.20
2014,06,20,07,35,1.60
2014,06,20,07,36,1.60
2014,06,20,07,37,3.20
2014,06,20,07,38,3.20
2014,06,20,07,39,1.60
2014,06,20,07,40,1.60
2014,06,20,08,03,1.60
2014,06,20,08,06,3.20
2014,06,20,08,07,4.80
2014,06,20,08,08,3.20
2014,06,20,08,09,1.60
2014,06,20,08,10,1.60
2014,06,20,08,11,3.20
2014,06,20,08,12,4.80
2014,06,20,08,13,6.40
2014,06,20,08,14,4.80
2014,06,20,08,15,8.10
2014,06,20,08,16,6.40
2014,06,20,08,17,3.20
2014,06,20,08,18,8.10
2014,06,20,08,19,6.40
2014,06,20,08,20,6.40
2014,06,20,08,21,6.40
2014,06,20,08,22,6.40
2014,06,20,08,23,8.10
2014,06,20,08,24,11.30
2014,06,20,08,25,8.10
2014,06,20,08,26,8.10
2014,06,20,08,27,4.80
2014,06,20,08,28,4.80
2014,06,20,08,29,4.80
2014,06,20,08,30,4.80
2014,06,20,08,31,6.40
2014,06,20,08,32,8.10
2014,06,20,08,33,4.80
2014,06,20,08,34,8.10
2014,06,20,08,35,8.10
2014,06,20,08,36,6.40
2014,06,20,08,37,4.80
2014,06,20,08,38,6.40
2014,06,20,08,39,8.10
2014,06,20,08,40,6.40
2014,06,20,08,41,8.10
2014,06,20,08,42,8.10
2014,06,20,08,43,8.10
2014,06,20,08,44,1.60
2014,06,20,08,45,4.80
2014,06,20,08,46,6.40
2014,06,20,08,47,6.40
2014,06,20,08,48,1.60
2014,06,20,08,49,3.20
2014,06,20,08,50,6.40
2014,06,20,08,51,9.60
2014,06,20,08,52,4.80
2014,06,20,08,53,4.80
2014,06,20,08,54,1.60
2014,06,20,08,57,3.20
2014,06,20,08,58,1.60
2014,06,20,08,59,1.60
2014,06,20,09,00,1.60
2014,06,20,09,01,4.80
2014,06,20,09,02,3.20
2014,06,20,09,10,1.60
2014,06,20,09,12,4.80
2014,06,20,09,13,3.20
2014,06,20,09,14,6.40
2014,06,20,09,15,8.10
2014,06,20,09,16,8.10
2014,06,20,09,17,4.80
2014,06,20,09,18,1.60
2014,06,20,09,19,3.20
2014,06,20,09,20,4.80
2014,06,20,09,21,4.80
2014,06,20,09,22,6.40
2014,06,20,09,23,11.30
2014,06,20,09,24,9.60
2014,06,20,09,25,11.30
2014,06,20,09,26,9.60
2014,06,20,09,27,6.40
2014,06,20,09,28,1.60
2014,06,20,09,29,8.10
2014,06,20,09,30,6.40
2014,06,20,09,31,11.30
2014,06,20,09,32,8.10
2014,06,20,09,33,8.10
2014,06,20,09,34,8.10
2014,06,20,09,35,9.60
2014,06,20,09,36,8.10
2014,06,20,09,37,9.60
2014,06,20,09,38,9.60
2014,06,20,09,39,9.60
2014,06,20,09,40,6.40
2014,06,20,09,41,9.60
2014,06,20,09,42,9.60
2014,06,20,09,43,8.10
2014,06,20,09,44,9.60
2014,06,20,09,45,6.40
2014,06,20,09,46,3.20
2014,06,20,09,47,8.10
2014,06,20,09,48,6.40
2014,06,20,09,49,8.10
2014,06,20,09,50,6.40
2014,06,20,09,51,6.40
2014,06,20,09,52,6.40
2014,06,20,09,53,8.10
2014,06,20,09,54,6.40
2014,06,20,09,55,3.20
2014,06,20,09,56,1.60
2014,06,20,09,57,6.40
2014,06,20,09,58,6.40
2014,06,20,09,59,6.40
2014,06,20,10,00,6.40
2014,06,20,10,01,9.60
2014,06,20,10,02,8.10
2014,06,20,10,03,6.40
2014,06,20,10,04,6.40
2014,06,20,10,05,8.10
2014,06,20,10,06,6.40
2014,06,20,10,07,8.10
2014,06,20,10,08,8.10
2014,06,20,10,09,8.10
2014,06,20,10,10,9.60
2014,06,20,10,11,9.60
2014,06,20,10,12,8.10
2014,06,20,10,13,6.40
2014,06,20,10,14,11.30
2014,06,20,10,15,11.30
2014,06,20,10,16,8.10
2014,06,20,10,17,8.10
2014,06,20,10,18,9.60
2014,06,20,10,19,9.60
2014,06,20,10,20,9.60
2014,06,20,10,21,8.10
2014,06,20,10,22,9.60
2014,06,20,10,23,8.10
2014,06,20,10,24,9.60
2014,06,20,10,25,14.50
2014,06,20,10,26,14.50
2014,06,20,10,27,8.10
2014,06,20,10,28,11.30
2014,06,20,10,29,9.60
2014,06,20,10,30,16.10
2014,06,20,10,31,17.70
2014,06,20,10,32,17.70
2014,06,20,10,33,12.90
2014,06,20,10,34,16.10
2014,06,20,10,35,14.50
2014,06,20,10,36,14.50
2014,06,20,10,37,8.10
2014,06,20,10,38,12.90
2014,06,20,10,39,11.30
2014,06,20,10,40,8.10
2014,06,20,10,41,11.30
2014,06,20,10,42,8.10
2014,06,20,10,43,9.60
2014,06,20,10,44,9.60
2014,06,20,10,45,9.60
2014,06,20,10,46,9.60
2014,06,20,10,47,9.60
2014,06,20,10,48,8.10
2014,06,20,10,49,9.60
2014,06,20,10,50,9.60
2014,06,20,10,51,9.60
2014,06,20,10,52,8.10
2014,06,20,10,53,4.80
2014,06,20,10,54,3.20
2014,06,20,10,55,4.80
2014,06,20,10,56,3.20
2014,06,20,10,57,6.40
2014,06,20,10,58,4.80
2014,06,20,10,59,6.40
2014,06,20,11,00,6.40
2014,06,20,11,01,9.60
2014,06,20,11,02,8.10
2014,06,20,11,03,8.10
2014,06,20,11,04,8.10
2014,06,20,11,05,8.10
2014,06,20,11,06,9.60
2014,06,20,11,07,9.60
2014,06,20,11,08,9.60
2014,06,20,11,09,8.10
2014,06,20,11,10,4.80
2014,06,20,11,11,4.80
2014,06,20,11,12,4.80
2014,06,20,11,13,6.40
2014,06,20,11,14,6.40
2014,06,20,11,15,8.10
2014,06,20,11,16,8.10
2014,06,20,11,17,8.10
2014,06,20,11,18,8.10
2014,06,20,11,19,6.40
2014,06,20,11,20,8.10
2014,06,20,11,21,9.60
2014,06,20,11,22,11.30
2014,06,20,11,23,9.60
2014,06,20,11,24,6.40
2014,06,20,11,25,8.10
2014,06,20,11,26,9.60
2014,06,20,11,27,6.40
2014,06,20,11,28,6.40
2014,06,20,11,29,9.60
2014,06,20,11,30,8.10
2014,06,20,11,31,9.60
2014,06,20,11,32,9.60
2014,06,20,11,33,6.40
2014,06,20,11,34,9.60
2014,06,20,11,35,9.60
2014,06,20,11,36,8.10
2014,06,20,11,37,8.10
2014,06,20,11,38,4.80
2014,06,20,11,39,6.40
2014,06,20,11,40,6.40
2014,06,20,11,41,9.60
2014,06,20,11,42,8.10
2014,06,20,11,43,8.10
2014,06,20,11,44,6.40
2014,06,20,11,45,11.30
2014,06,20,11,46,6.40
2014,06,20,11,47,9.60
2014,06,20,11,48,8.10
2014,06,20,11,49,9.60
2014,06,20,11,50,6.40
2014,06,20,11,51,6.40
2014,06,20,11,52,6.40
2014,06,20,11,53,3.20
2014,06,20,11,54,3.20
2014,06,20,11,55,1.60
2014,06,20,11,56,4.80
2014,06,20,11,57,3.20
2014,06,20,11,58,3.20
2014,06,20,11,59,3.20
2014,06,20,12,00,1.60
2014,06,20,12,01,4.80
2014,06,20,12,02,3.20
2014,06,20,12,03,1.60
2014,06,20,12,04,8.10
2014,06,20,12,05,8.10
2014,06,20,12,06,6.40
2014,06,20,12,07,9.60
2014,06,20,12,08,8.10
2014,06,20,12,09,9.60
2014,06,20,12,10,8.10
2014,06,20,12,11,8.10
2014,06,20,12,12,8.10
2014,06,20,12,13,8.10
2014,06,20,12,14,8.10
2014,06,20,12,15,4.80
2014,06,20,12,16,8.10
2014,06,20,12,17,9.60
2014,06,20,12,18,6.40
2014,06,20,12,19,6.40
2014,06,20,12,20,6.40
2014,06,20,12,21,6.40
2014,06,20,12,22,9.60
2014,06,20,12,23,8.10
2014,06,20,12,24,9.60
2014,06,20,12,25,9.60
2014,06,20,12,26,11.30
2014,06,20,12,27,9.60
2014,06,20,12,28,8.10
2014,06,20,12,29,9.60
2014,06,20,12,30,9.60
2014,06,20,12,31,11.30
2014,06,20,12,32,11.30
2014,06,20,12,33,6.40
2014,06,20,12,34,4.80
2014,06,20,12,35,6.40
2014,06,20,12,36,8.10
2014,06,20,12,37,8.10
2014,06,20,12,38,4.80
2014,06,20,12,39,4.80
2014,06,20,12,40,9.60
2014,06,20,12,41,11.30
2014,06,20,12,42,9.60
2014,06,20,12,43,4.80
2014,06,20,12,44,3.20
2014,06,20,12,45,6.40
2014,06,20,12,46,4.80
2014,06,20,12,47,6.40
2014,06,20,12,48,1.60
2014,06,20,12,49,4.80
2014,06,20,12,50,4.80
2014,06,20,12,51,4.80
2014,06,20,12,52,9.60
2014,06,20,12,53,11.30
2014,06,20,12,54,3.20
2014,06,20,12,55,1.60
2014,06,20,12,56,3.20
2014,06,20,12,57,8.10
2014,06,20,12,58,4.80
2014,06,20,12,59,4.80
2014,06,20,13,00,8.10
2014,06,20,13,01,6.40
2014,06,20,13,02,6.40
2014,06,20,13,03,8.10
2014,06,20,13,04,11.30
2014,06,20,13,05,11.30
2014,06,20,13,06,6.40
2014,06,20,13,07,4.80
2014,06,20,13,08,11.30
2014,06,20,13,09,6.40
2014,06,20,13,10,6.40
2014,06,20,13,12,4.80
2014,06,20,13,13,11.30
2014,06,20,13,14,9.60
2014,06,20,13,15,11.30
2014,06,20,13,16,8.10
2014,06,20,13,17,14.50
2014,06,20,13,18,8.10
2014,06,20,13,19,9.60
2014,06,20,13,20,9.60
2014,06,20,13,21,3.20
2014,06,20,13,22,6.40
2014,06,20,13,23,9.60
2014,06,20,13,24,8.10
2014,06,20,13,25,4.80
2014,06,20,13,26,8.10
2014,06,20,13,27,6.40
2014,06,20,13,28,11.30
2014,06,20,13,29,8.10
2014,06,20,13,30,6.40
2014,06,20,13,31,17.70
2014,06,20,13,32,14.50
2014,06,20,13,33,9.60
2014,06,20,13,34,8.10
2014,06,20,13,35,8.10
2014,06,20,13,36,16.10
2014,06,20,13,37,11.30
2014,06,20,13,38,8.10
2014,06,20,13,39,12.90
2014,06,20,13,40,14.50
2014,06,20,13,41,11.30
2014,06,20,13,42,4.80
2014,06,20,13,43,6.40
2014,06,20,13,44,6.40
2014,06,20,13,45,9.60
2014,06,20,13,46,11.30
2014,06,20,13,47,9.60
2014,06,20,13,48,8.10
2014,06,20,13,49,9.60
2014,06,20,13,50,8.10
2014,06,20,13,51,9.60
2014,06,20,13,52,8.10
2014,06,20,13,53,12.90
2014,06,20,13,54,12.90
2014,06,20,13,55,12.90
2014,06,20,13,56,11.30
2014,06,20,13,57,11.30
2014,06,20,13,58,9.60
2014,06,20,13,59,11.30
2014,06,20,14,00,9.60
2014,06,20,14,01,9.60
2014,06,20,14,02,8.10
2014,06,20,14,03,16.10
2014,06,20,14,04,14.50
2014,06,20,14,05,11.30
2014,06,20,14,06,11.30
2014,06,20,14,07,9.60
2014,06,20,14,08,9.60
2014,06,20,14,09,14.50
2014,06,20,14,10,16.10
2014,06,20,14,11,9.60
2014,06,20,14,12,14.50
2014,06,20,14,13,19.30
2014,06,20,14,14,14.50
2014,06,20,14,15,12.90
2014,06,20,14,16,11.30
2014,06,20,14,17,11.30
2014,06,20,14,18,12.90
2014,06,20,14,19,11.30
2014,06,20,14,20,8.10
2014,06,20,14,21,8.10
2014,06,20,14,22,4.80
2014,06,20,14,23,9.60
2014,06,20,14,24,11.30
2014,06,20,14,25,9.60
2014,06,20,14,26,11.30
2014,06,20,14,27,11.30
2014,06,20,14,28,8.10
2014,06,20,14,29,8.10
2014,06,20,14,30,8.10
2014,06,20,14,31,8.10
2014,06,20,14,32,11.30
2014,06,20,14,33,14.50
2014,06,20,14,34,8.10
2014,06,20,14,35,9.60
2014,06,20,14,36,4.80
2014,06,20,14,37,6.40
2014,06,20,14,38,6.40
2014,06,20,14,39,6.40
2014,06,20,14,40,12.90
2014,06,20,14,41,16.10
2014,06,20,14,42,11.30
2014,06,20,14,43,20.90
2014,06,20,14,44,11.30
2014,06,20,14,45,8.10
2014,06,20,14,46,14.50
2014,06,20,14,47,14.50
2014,06,20,14,48,9.60
2014,06,20,14,49,4.80
2014,06,20,14,50,3.20
2014,06,20,14,51,6.40
2014,06,20,14,52,1.60
2014,06,20,14,53,3.20
2014,06,20,14,54,6.40
2014,06,20,14,55,11.30
2014,06,20,14,56,11.30
2014,06,20,14,57,6.40
2014,06,20,14,58,6.40
2014,06,20,14,59,11.30
2014,06,20,15,00,11.30
2014,06,20,15,01,8.10
2014,06,20,15,02,9.60
2014,06,20,15,03,11.30
2014,06,20,15,04,11.30
2014,06,20,15,05,8.10
2014,06,20,15,06,6.40
2014,06,20,15,07,6.40
2014,06,20,15,08,6.40
2014,06,20,15,09,4.80
2014,06,20,15,10,1.60
2014,06,20,15,11,3.20
2014,06,20,15,12,9.60
2014,06,20,15,13,9.60
2014,06,20,15,14,11.30
2014,06,20,15,15,8.10
2014,06,20,15,16,9.60
2014,06,20,15,17,8.10
2014,06,20,15,18,4.80
2014,06,20,15,19,1.60
2014,06,20,15,20,1.60
2014,06,20,15,21,3.20
2014,06,20,15,22,6.40
2014,06,20,15,23,3.20
2014,06,20,15,24,4.80
2014,06,20,15,25,4.80
2014,06,20,15,26,3.20
2014,06,20,15,27,3.20
2014,06,20,15,28,4.80
2014,06,20,15,29,4.80
2014,06,20,15,30,4.80
2014,06,20,15,31,4.80
2014,06,20,15,32,4.80
2014,06,20,15,33,6.40
2014,06,20,15,34,6.40
2014,06,20,15,35,4.80
2014,06,20,15,36,1.60
2014,06,20,15,37,1.60
2014,06,20,15,39,1.60
2014,06,20,15,40,3.20
2014,06,20,15,41,4.80
2014,06,20,15,43,1.60
2014,06,20,15,44,6.40
2014,06,20,15,45,4.80
2014,06,20,15,46,1.60
2014,06,20,15,47,4.80
2014,06,20,15,48,6.40
2014,06,20,15,49,8.10
2014,06,20,15,50,6.40
2014,06,20,15,51,6.40
2014,06,20,15,52,6.40
2014,06,20,15,53,8.10
2014,06,20,15,54,6.40
2014,06,20,15,55,3.20
2014,06,20,15,56,4.80
2014,06,20,15,57,6.40
2014,06,20,15,58,1.60
2014,06,20,15,59,4.80
2014,06,20,16,00,4.80
2014,06,20,16,01,3.20
2014,06,20,16,02,4.80
2014,06,20,16,03,4.80
2014,06,20,16,04,4.80
2014,06,20,16,05,6.40
2014,06,20,16,06,6.40
2014,06,20,16,07,9.60
2014,06,20,16,08,8.10
2014,06,20,16,09,6.40
2014,06,20,16,10,16.10
2014,06,20,16,11,8.10
2014,06,20,16,12,3.20
2014,06,20,16,13,11.30
2014,06,20,16,14,9.60
2014,06,20,16,15,6.40
2014,06,20,16,16,3.20
2014,06,20,16,17,3.20
2014,06,20,16,18,1.60
2014,06,20,16,19,6.40
2014,06,20,16,20,8.10
2014,06,20,16,21,6.40
2014,06,20,16,22,8.10
2014,06,20,16,23,6.40
2014,06,20,16,24,8.10
2014,06,20,16,25,4.80
2014,06,20,16,26,6.40
2014,06,20,16,27,6.40
2014,06,20,16,28,3.20
2014,06,20,16,29,6.40
2014,06,20,16,30,3.20
2014,06,20,16,31,6.40
2014,06,20,16,32,4.80
2014,06,20,16,33,3.20
2014,06,20,16,34,4.80
2014,06,20,16,35,4.80
2014,06,20,16,36,4.80
2014,06,20,16,38,3.20
2014,06,20,16,39,3.20
2014,06,20,16,40,3.20
2014,06,20,16,41,4.80
2014,06,20,16,42,3.20
2014,06,20,16,43,3.20
2014,06,20,16,44,4.80
2014,06,20,16,45,4.80
2014,06,20,16,46,3.20
2014,06,20,16,47,3.20
2014,06,20,16,48,3.20
2014,06,20,16,49,3.20
2014,06,20,16,50,4.80
2014,06,20,16,51,3.20
2014,06,20,16,52,3.20
2014,06,20,16,53,4.80
2014,06,20,16,54,4.80
2014,06,20,16,55,3.20
2014,06,20,16,56,1.60
2014,06,20,16,57,3.20
2014,06,20,16,58,3.20
2014,06,20,16,59,3.20
2014,06,20,17,00,6.40
2014,06,20,17,01,4.80
2014,06,20,17,02,4.80
2014,06,20,17,03,4.80
2014,06,20,17,04,4.80
2014,06,20,17,05,4.80
2014,06,20,17,06,6.40
2014,06,20,17,07,6.40
2014,06,20,17,08,1.60
2014,06,20,17,10,4.80
2014,06,20,17,11,4.80
2014,06,20,17,12,4.80
2014,06,20,17,13,9.60
2014,06,20,17,14,9.60
2014,06,20,17,15,8.10
2014,06,20,17,16,8.10
2014,06,20,17,17,8.10
2014,06,20,17,18,4.80
2014,06,20,17,19,6.40
2014,06,20,17,20,9.60
2014,06,20,17,21,9.60
2014,06,20,17,22,6.40
2014,06,20,17,23,6.40
2014,06,20,17,24,8.10
2014,06,20,17,25,8.10
2014,06,20,17,26,8.10
2014,06,20,17,27,8.10
2014,06,20,17,28,6.40
2014,06,20,17,29,6.40
2014,06,20,17,30,6.40
2014,06,20,17,31,6.40
2014,06,20,17,32,8.10
2014,06,20,17,33,8.10
2014,06,20,17,34,8.10
2014,06,20,17,35,1.60
2014,06,20,17,36,6.40
2014,06,20,17,37,8.10
2014,06,20,17,38,6.40
2014,06,20,17,39,8.10
2014,06,20,17,40,9.60
2014,06,20,17,41,8.10
2014,06,20,17,42,8.10
2014,06,20,17,43,8.10
2014,06,20,17,44,3.20
2014,06,20,17,45,4.80
2014,06,20,17,46,6.40
2014,06,20,17,47,1.60
2014,06,20,17,48,3.20
2014,06,20,17,49,6.40
2014,06,20,17,50,4.80
2014,06,20,17,51,6.40
2014,06,20,17,52,6.40
2014,06,20,17,53,4.80
2014,06,20,17,54,3.20
2014,06,20,17,55,1.60
2014,06,20,17,56,3.20
2014,06,20,17,57,3.20
2014,06,20,17,58,4.80
2014,06,20,17,59,4.80
2014,06,20,18,00,4.80
2014,06,20,18,01,4.80
2014,06,20,18,02,3.20
2014,06,20,18,03,3.20
2014,06,20,18,04,4.80
2014,06,20,18,05,6.40
2014,06,20,18,06,6.40
2014,06,20,18,07,4.80
2014,06,20,18,08,1.60
2014,06,20,18,09,4.80
2014,06,20,18,10,1.60
2014,06,20,18,11,4.80
2014,06,20,18,12,3.20
2014,06,20,18,13,4.80
2014,06,20,18,14,6.40
2014,06,20,18,15,4.80
2014,06,20,18,16,4.80
2014,06,20,18,17,4.80
2014,06,20,18,18,6.40
2014,06,20,18,19,3.20
2014,06,20,18,20,6.40
2014,06,20,18,21,6.40
2014,06,20,18,22,6.40
2014,06,20,18,23,6.40
2014,06,20,18,24,4.80
2014,06,20,18,25,3.20
2014,06,20,18,26,4.80
2014,06,20,18,27,3.20
2014,06,20,18,28,3.20
2014,06,20,18,29,3.20
2014,06,20,18,30,4.80
2014,06,20,18,31,1.60
2014,06,20,18,32,3.20
2014,06,20,18,33,3.20
2014,06,20,18,34,3.20
2014,06,20,18,36,3.20
2014,06,20,18,37,1.60
2014,06,20,18,38,3.20
2014,06,20,18,39,3.20
2014,06,20,18,41,3.20
2014,06,20,18,42,3.20
2014,06,20,18,43,4.80
2014,06,20,18,44,4.80
2014,06,20,18,45,4.80
2014,06,20,18,46,3.20
2014,06,20,18,47,1.60
2014,06,20,18,48,1.60
2014,06,20,18,49,1.60
2014,06,20,18,50,1.60
2014,06,20,18,51,3.20
2014,06,20,18,52,4.80
2014,06,20,18,53,4.80
2014,06,20,18,54,4.80
2014,06,20,18,55,3.20
2014,06,20,18,56,3.20
2014,06,20,18,57,3.20
2014,06,20,19,01,1.60
2014,06,20,19,02,1.60
2014,06,20,19,03,1.60
2014,06,20,19,04,3.20
2014,06,20,19,05,1.60
2014,06,20,19,06,1.60
2014,06,20,19,07,1.60
2014,06,20,19,08,4.80
2014,06,20,19,09,3.20
2014,06,20,19,10,1.60
2014,06,20,19,12,3.20
2014,06,20,19,13,1.60
2014,06,20,19,14,3.20
2014,06,20,19,15,1.60
2014,06,20,19,17,1.60
2014,06,20,19,18,1.60
2014,06,20,19,19,1.60
2014,06,20,19,20,3.20
2014,06,20,19,21,3.20
2014,06,20,19,22,4.80
2014,06,20,19,23,3.20
2014,06,20,19,24,3.20
2014,06,20,19,25,4.80
2014,06,20,19,26,3.20
2014,06,20,19,28,3.20
2014,06,20,19,29,1.60
2014,06,20,19,30,4.80
2014,06,20,19,31,4.80
2014,06,20,19,32,1.60
2014,06,20,19,33,3.20
2014,06,20,19,34,1.60
2014,06,20,19,46,1.60
2014,06,20,19,47,1.60
2014,06,20,19,49,1.60
2014,06,20,19,50,1.60
2014,06,20,20,02,1.60
2014,06,20,20,29,1.60
2014,06,20,20,31,1.60
2014,06,20,20,45,1.60
2014,06,20,20,46,3.20
2014,06,20,20,47,3.20
2014,06,20,20,48,1.60
2014,06,20,20,50,1.60
2014,06,20,20,52,6.40
2014,06,20,20,53,4.80
2014,06,20,20,54,4.80
2014,06,20,20,55,4.80
2014,06,20,20,56,3.20
2014,06,20,20,57,3.20
2014,06,20,20,58,1.60
2014,06,20,20,59,1.60
2014,06,20,21,05,1.60
2014,06,20,21,06,3.20
2014,06,20,21,07,3.20
2014,06,20,21,08,3.20
2014,06,20,21,09,3.20
2014,06,20,21,10,1.60
2014,06,20,21,13,1.60
2014,06,20,21,15,1.60
2014,06,20,21,17,1.60
2014,06,20,21,24,1.60
2014,06,20,21,25,3.20
2014,06,20,21,26,1.60
2014,06,20,21,37,3.20
2014,06,20,21,38,1.60
2014,06,20,21,40,1.60
2014,06,20,21,41,3.20
2014,06,20,21,42,1.60
2014,06,20,21,43,1.60
2014,06,20,21,52,3.20
2014,06,20,21,53,1.60
2014,06,20,22,01,3.20
2014,06,20,22,08,1.60
2014,06,20,22,17,1.60
2014,06,20,22,18,1.60
2014,06,20,22,19,3.20
2014,06,20,22,20,3.20
2014,06,20,22,21,1.60
2014,06,20,22,31,1.60
2014,06,20,22,32,3.20
2014,06,20,22,36,1.60
2014,06,20,22,38,3.20
2014,06,20,22,39,4.80
2014,06,20,22,40,4.80
2014,06,20,22,41,3.20
2014,06,20,22,43,1.60
2014,06,20,22,44,1.60
2014,06,20,22,45,1.60
2014,06,20,22,50,1.60
2014,06,20,22,55,1.60
2014,06,20,22,57,1.60
2014,06,20,23,09,1.60
2014,06,20,23,10,3.20
2014,06,20,23,11,3.20
2014,06,20,23,12,3.20
2014,06,20,23,13,3.20
2014,06,20,23,14,4.80
2014,06,20,23,15,3.20
2014,06,20,23,16,1.60
2014,06,20,23,17,3.20
2014,06,20,23,20,1.60
2014,06,20,23,31,1.60
2014,06,20,23,38,1.60
2014,06,20,23,39,1.60
2014,06,20,23,40,1.60
